TimeEDT,TemperatureF,Dew PointF,Humidity,Sea Level PressureIn,VisibilityMPH,Wind Direction,Wind SpeedMPH,Gust SpeedMPH,PrecipitationIn,Events,Conditions,WindDirDegrees,DateUTC
12:07 AM,30.0,21.0,69,30.09,10.0,NE,6.9,-,N/A,,Mostly Cloudy,50,2014-04-01 04:07:00
12:52 AM,30.0,21.0,69,30.13,10.0,ENE,6.9,-,N/A,,Overcast,60,2014-04-01 04:52:00
1:52 AM,28.9,21.0,72,30.12,10.0,ENE,6.9,-,N/A,,Clear,60,2014-04-01 05:52:00
2:52 AM,27.0,21.0,78,30.14,10.0,ESE,10.4,-,N/A,,Clear,120,2014-04-01 06:52:00
3:52 AM,27.0,19.9,75,30.14,10.0,East,5.8,-,N/A,,Clear,80,2014-04-01 07:52:00
4:52 AM,26.1,19.0,75,30.13,10.0,East,10.4,-,N/A,,Clear,100,2014-04-01 08:52:00
5:52 AM,24.1,19.0,81,30.15,10.0,East,11.5,-,N/A,,Clear,100,2014-04-01 09:52:00
6:52 AM,23.0,19.0,85,30.15,10.0,ESE,10.4,-,N/A,,Clear,110,2014-04-01 10:52:00
7:52 AM,26.1,19.0,75,30.16,10.0,East,10.4,-,N/A,,Clear,100,2014-04-01 11:52:00
8:52 AM,30.9,19.9,64,30.13,10.0,East,6.9,-,N/A,,Clear,90,2014-04-01 12:52:00
9:52 AM,36.0,21.9,57,30.12,10.0,East,16.1,-,N/A,,Clear,100,2014-04-01 13:52:00
10:52 AM,37.9,21.9,53,30.11,10.0,Variable,5.8,-,N/A,,Clear,0,2014-04-01 14:52:00
11:52 AM,41.0,21.9,47,30.10,10.0,ESE,9.2,-,N/A,,Clear,120,2014-04-01 15:52:00
12:52 PM,44.1,21.9,42,30.09,10.0,SSE,4.6,-,N/A,,Clear,150,2014-04-01 16:52:00
1:52 PM,46.0,23.0,40,30.06,10.0,Variable,6.9,-,N/A,,Clear,0,2014-04-01 17:52:00
2:52 PM,48.9,21.0,33,30.04,10.0,East,6.9,-,N/A,,Clear,90,2014-04-01 18:52:00
3:52 PM,50.0,21.0,32,30.03,10.0,ESE,10.4,-,N/A,,Clear,120,2014-04-01 19:52:00
4:52 PM,51.1,21.9,32,30.02,10.0,East,12.7,-,N/A,,Clear,100,2014-04-01 20:52:00
5:52 PM,51.1,19.9,29,30.03,10.0,East,10.4,-,N/A,,Clear,100,2014-04-01 21:52:00
6:52 PM,42.1,25.0,51,30.05,10.0,ESE,11.5,-,N/A,,Clear,110,2014-04-01 22:52:00
7:52 PM,36.0,26.1,67,30.06,10.0,East,11.5,-,N/A,,Clear,100,2014-04-01 23:52:00
8:52 PM,33.1,26.1,75,30.08,10.0,ESE,11.5,-,N/A,,Clear,110,2014-04-02 00:52:00
9:52 PM,32.0,25.0,75,30.07,10.0,ESE,11.5,-,N/A,,Clear,110,2014-04-02 01:52:00
10:52 PM,33.1,25.0,72,30.07,10.0,ESE,6.9,-,N/A,,Clear,120,2014-04-02 02:52:00
11:52 PM,32.0,25.0,75,30.07,10.0,ESE,12.7,-,N/A,,Clear,110,2014-04-02 03:52:00